Weather History for EIKN - June, 2013

Change the Weather History Date:

Thursday, June 13, 2013

  Actual Average Record
Temperature  
Mean Temperature 52 °F -  
Max Temperature 57 °F - - ()
Min Temperature 48 °F - - ()
Degree Days  
Heating Degree Days 12    
Growing Degree Days 2 (Base 50)    
Moisture  
Dew Point 46 °F    
Average Humidity 78    
Maximum Humidity 100    
Minimum Humidity 51    
Precipitation  
Precipitation 0.04 in - - ()
Sea Level Pressure  
Sea Level Pressure 29.78 in    
Wind  
Wind Speed 11 mph ()    
Max Wind Speed 23 mph    
Max Gust Speed -    
Visibility 6.6 miles    
Events Rain    
T = Trace of Precipitation, MM = Missing Value Source: Averaged Metar Reports

Daily Weather History Graph

Daily Weather History Graph

Search for Another Location

Airport or City:

Trip Planner

Search our weather history database for the weather conditions in past years. The results will help you decide how hot, cold, wet, or windy it might be!

Date:

Astronomy

Jun. 13, 2013 Rise Set
Actual Time 5:03 AM IST 10:07 PM IST
Civil Twilight 4:09 AM IST 11:01 PM IST
Nautical Twilight 2:29 AM IST 12:42 AM IST
Astronomical Twilight Sun does not set Sun does not set
Moon 10:02 AM IST (6/13) 12:03 AM IST (6/13)
Length of Visible Light 18h 51m
Length of Day
17h 04m
Waxing Crescent, 20% of the Moon is Illuminated
Jun 13
Waxing Crescent
Jun 16
First Quarter
Jun 23
Full
Jun 30
Last Quarter
Jul 8
New

Hourly Weather History & Observations

Time (IST) Temp. Dew Point Humidity Pressure Visibility Wind Dir Wind Speed Gust Speed Precip Events Conditions
1:00 AM 50 °F 50 °F 100% 29.63 in - North 6.7 mph - -  
6:00 AM 50.0 °F 50.0 °F 100% 29.68 in 6.2 mi WNW 9.2 mph - N/A   Mostly Cloudy
6:30 AM 50.0 °F 48.2 °F 94% 29.71 in 6.2 mi West 9.2 mph - N/A   Mostly Cloudy
7:00 AM 50 °F 49 °F 95% 29.74 in 16 mi West 8.9 mph - - Rain Light Rain
7:00 AM 50.0 °F 48.2 °F 94% 29.71 in 6.2 mi West 9.2 mph - N/A   Mostly Cloudy
7:30 AM 50.0 °F 50.0 °F 100% 29.74 in 6.2 mi West 9.2 mph - N/A   Mostly Cloudy
8:00 AM 51.8 °F 50.0 °F 94% 29.74 in 6.2 mi West 9.2 mph - N/A Rain Light Rain
8:30 AM 50.0 °F 46.4 °F 87% 29.74 in 6.2 mi West 13.8 mph - N/A   Mostly Cloudy
9:00 AM 50.0 °F 46.4 °F 87% 29.74 in 6.2 mi West 10.4 mph - N/A   Mostly Cloudy
9:30 AM 51.8 °F 46.4 °F 82% 29.74 in 6.2 mi WNW 13.8 mph - N/A   Mostly Cloudy
10:00 AM 51.8 °F 46.4 °F 82% 29.77 in 6.2 mi West 13.8 mph - N/A   Mostly Cloudy
10:30 AM 53.6 °F 46.4 °F 77% 29.77 in 6.2 mi West 12.7 mph - N/A   Mostly Cloudy
11:00 AM 53.6 °F 46.4 °F 77% 29.77 in 6.2 mi West 12.7 mph - N/A   Mostly Cloudy
11:30 AM 51.8 °F 48.2 °F 88% 29.77 in 6.2 mi West 13.8 mph - N/A   Mostly Cloudy
12:00 PM 55.4 °F 46.4 °F 72% 29.77 in 6.2 mi West 15.0 mph - N/A Rain Light Rain Showers
12:30 PM 51.8 °F 46.4 °F 82% 29.77 in 6.2 mi WNW 13.8 mph - N/A   Scattered Clouds
1:00 PM 57 °F 48 °F 64% 29.79 in 22 mi West 17.9 mph - - Rain Light Rain Showers
1:00 PM 57.2 °F 48.2 °F 72% 29.77 in 6.2 mi West 17.3 mph - N/A   Mostly Cloudy
1:30 PM 55.4 °F 48.2 °F 77% 29.80 in 6.2 mi West 20.7 mph - N/A   Mostly Cloudy
2:00 PM 51.8 °F 48.2 °F 88% 29.80 in 6.2 mi West 16.1 mph - N/A Rain Light Rain Showers
2:30 PM 51.8 °F 48.2 °F 88% 29.83 in 6.2 mi West 17.3 mph - N/A   Mostly Cloudy
3:00 PM 53.6 °F 46.4 °F 77% 29.83 in 6.2 mi West 15.0 mph - N/A   Mostly Cloudy
3:30 PM 55.4 °F 46.4 °F 72% 29.83 in 6.2 mi West 18.4 mph - N/A   Mostly Cloudy
4:00 PM 55.4 °F 44.6 °F 67% 29.83 in 6.2 mi West 18.4 mph - N/A Rain Light Rain Showers
4:30 PM 57.2 °F 39.2 °F 51% 29.83 in 6.2 mi West 23.0 mph - N/A   Scattered Clouds
5:00 PM 57.2 °F 41.0 °F 55% 29.83 in 6.2 mi WSW 19.6 mph - N/A   Scattered Clouds
5:30 PM 57.2 °F 41.0 °F 55% 29.83 in 6.2 mi West 19.6 mph - N/A   Partly Cloudy
6:00 PM 57.2 °F 42.8 °F 59% 29.83 in 6.2 mi WSW 16.1 mph - N/A   Scattered Clouds
7:00 PM 54 °F 43 °F 57% 29.86 in 47 mi WSW 17.9 mph - -   Partly Cloudy
7:00 PM 53.6 °F 42.8 °F 67% 29.86 in 6.2 mi WSW 17.3 mph - N/A   Scattered Clouds
7:30 PM 55.4 °F 41.0 °F 58% 29.86 in 6.2 mi West 15.0 mph - N/A   Partly Cloudy